Regional Weather Roundup
Issued by NWS

Home | Current Version | Previous Version | Text Only | Print | Product List | Glossary Off
Versions: 1 2 3 4 5 6 7 8 9 10 11 12 13 14 15 16 17 18 19 20 21 22 23 24 25 26 27 28 29 30 31 32 33 34 35 36 37 38 39 40 41 42 43 44 45 46 47 48 49 50

000
ASUS43 KLOT 252003
RWRIL

ILLINOIS REGIONAL WEATHER ROUNDUP
NATIONAL WEATHER SERVICE CHICAGO/ROMEOVILLE IL
300 PM CDT MON JUL 25 2016

NOTE: "FAIR" INDICATES FEW OR NO CLOUDS BELOW 12,000 FEET WITH NO
SIGNIFICANT WEATHER AND/OR OBSTRUCTIONS TO VISIBILITY.

* THESE STATIONS ARE NOT UNDER NWS QUALITY CONTROL. THEY ALSO MAY NOT
  REPORT WEATHER SUCH AS PRECIPITATION OR FOG.

ILZ001-002-007-009-015-016-024-252100-
NORTHWEST ILLINOIS

CITY           SKY/WX    TMP DP  RH WIND       PRES   REMARKS
MOLINE         CLOUDY    87  66  49 NW10      30.02F HX  89
STERLING*      CLOUDY    85  67  54 N6        30.02F HX  87
SAVANNA*       SUNNY     84  65  51 N8        30.02F HX  85
$$

ILZ003-004-008-010-011-017-018-252100-
NORTH CENTRAL ILLINOIS

CITY           SKY/WX    TMP DP  RH WIND       PRES   REMARKS
ROCKFORD       MOSUNNY   85  64  49 NW8       30.02F HX  86
FREEPORT*      MOSUNNY   82  64  54 NW7       30.04S HX  83
ROCHELLE*      PTSUNNY   82  66  58 CALM      30.03F HX  84
$$

ILZ005-006-012>014-019>023-252100-
NORTHEAST ILLINOIS

CITY           SKY/WX    TMP DP  RH WIND       PRES   REMARKS
CHICAGO-OHARE  MOSUNNY   89  60  37 N7        29.98F HX  89
CHICAGO-MIDWAY PTSUNNY   86  64  47 E9        29.98F HX  87
AURORA         CLOUDY    85  68  56 VRB3      30.01F HX  88
LANSING*       MOSUNNY   84  63  49 CALM      30.00F HX  85
WAUKEGAN       MOSUNNY   81  65  58 SE8       29.99F HX  83
DUPAGE AIRPORT MOSUNNY   86  64  47 W8        30.00F HX  87
KANKAKEE*      CLOUDY    84  70  62 W8        30.00F HX  88
WHEELING       PTSUNNY   84  63  49 E6        30.00F HX  85
MORRIS*        MOSUNNY   83  69  61 CALM      29.99F HX  87
NORTHERLY ISL    N/A     78  69  73 E5          N/A  HX  80
$$

LMZ740>746-252100-
SOUTHERN LAKE MICHIGAN

STATION/POSITION SKY/WX   TEMP    WIND        PRES    VSBY  WAVE
                          AIR SEA DIR/SP/G                  HT/PER
                          (F)     (DEG/KT/KT) (MB)    (MI)  (FT/S)
WILMETTE HARBOR            74 69  140/  6/  6   N/A           0
HARRISON CRIB              77     100/  7/  8   N/A
BURNHAM HARBOR             78     100/  4/  6   N/A
CALUMET HARBOR             78      70/  6/  9 1015.9F
BURNS HARBOR               78      40/  4/  4 1016.9F
MICHIGAN CITY              77     270/  4/  5   N/A
MICHIGAN CITY 6N           75 76  320/  4/  6   N/A           1/ 3
ST. JOSEPH                 74 76  300/  4/  4 1016.4R         1/ 3
$$

ILZ025>027-034>036-040-047-049-050-058-095>099-252100-
WEST-CENTRAL ILLINOIS

CITY           SKY/WX    TMP DP  RH WIND       PRES   REMARKS
QUINCY         CLOUDY    84  67  56 N10       30.02F HX  86
GALESBURG*     MOSUNNY   84  68  58 NW9       30.03F HX  87
MACOMB*        PTSUNNY   82  69  64 N6        30.04F HX  86
JACKSONVILLE*  CLOUDY    81  74  79 NW3       30.01F HX  86
PITTSFIELD*    CLOUDY    83  73  72 N7        30.03S HX  88
$$

ILZ028>032-037-038-041>044-048-051>054-059>061-252100-
CENTRAL ILLINOIS

CITY           SKY/WX    TMP DP  RH WIND       PRES   REMARKS
BLOOMINGTON    CLOUDY    83  70  64 N6        30.02F HX  87
DECATUR        PTSUNNY   85  71  63 NW6       30.00F HX  90
PEORIA         PTSUNNY   86  69  56 NE7       30.00F HX  90
LACON*         PTSUNNY   84  66  55 CALM      30.00F HX  86
LINCOLN*       PTSUNNY   83  75  76 N5        30.00F HX  91
SPRINGFIELD    CLOUDY    84  73  69 NW3       30.00F HX  90
TAYLORVILLE    NOT AVBL
$$

ILZ033-039-045-046-055>057-062-063-252100-
EAST-CENTRAL ILLINOIS

CITY           SKY/WX    TMP DP  RH WIND       PRES   REMARKS
CHAMPAIGN      CLOUDY    83  73  72 W7        30.01F HX  89
MATTOON        CLOUDY    84  73  69 NW7       30.00S HX  90
$$

ILZ079-100>102-252100-
SOUTHWEST ILLINOIS

CITY           SKY/WX    TMP DP  RH WIND       PRES   REMARKS
ALTON          PTSUNNY   81  75  83 E6        30.00F HX  86
BELLEVILLE     CLOUDY    85  79  82 NE6       29.98F HX  97
CAHOKIA*       MOSUNNY   87  73  62 N6        29.98F HX  94
SPARTA*        CLOUDY    84  74  72 N7        30.01R HX  92
$$

ILZ064>066-069>071-074>076-080>082-084>086-088>090-092>094-252100-
SOUTH-CENTRAL ILLINOIS

CITY           SKY/WX    TMP DP  RH WIND       PRES   REMARKS
CARBONDALE     MOSUNNY   87  74  64 NW15G26   29.97R HX  95
EFFINGHAM*     CLOUDY    84  77  79 N3        30.01S HX  93
MARION         PTSUNNY   93  77  59 S8        29.97F HX 107
MT. VERNON     CLOUDY    75  70  83 CALM      29.98F
CENTRALIA*     LGT RAIN  80  79  98 CALM      29.99S HX  85
SALEM*         CLOUDY    84  77  81 CALM      29.99S HX  93
$$

ILZ067-068-072-073-078-083-087-091-252100-
SOUTHEAST ILLINOIS

CITY           SKY/WX    TMP DP  RH WIND       PRES   REMARKS
LAWRENCEVILLE  PTSUNNY   90  75  61 N7        29.98F HX 100
FLORA*         PTSUNNY   86  78  77 NW5       29.99S HX  98
FAIRFIELD*     TSTM      77  73  89 W18G24    29.98R
HARRISBURG*    MOSUNNY   88  79  73 E3        29.96F HX 102
ROBINSON*      CLOUDY    86  75  68 NE3       29.99S HX  95
CARMI*         CLOUDY    85  80  83 CALM      29.97S THUNDER HX  99
$$

ABBREVIATIONS USED IN REMARKS
   TC - TEMPERATURE IN CELSIUS
  WCI - WIND CHILL INDEX
   HX - HEAT INDEX
  VSB - VISIBILITY
$$





USA.gov is the U.S. government's official web portal to all federal, state and local government web resources and services.